Regional Weather Roundup
Issued by NWS

Home | Current Version | Previous Version | Graphics & Text | Print | Product List | Glossary Off
Versions: 1 2 3 4 5 6 7 8 9 10 11 12 13 14 15 16 17 18 19 20 21 22 23 24 25 26 27 28 29 30 31 32 33 34 35 36 37 38 39 40 41 42 43 44 45 46 47 48 49 50

000
ASUS43 KMKX 272011
RWRWI

WISCONSIN REGIONAL WEATHER ROUNDUP
NATIONAL WEATHER SERVICE MILWAUKEE/SULLIVAN WI
300 PM CDT SUN MAY 27 2018

NOTE: "FAIR" INDICATES FEW OR NO CLOUDS BELOW 12,000 FEET WITH NO
SIGNIFICANT WEATHER AND/OR OBSTRUCTIONS TO VISIBILITY.

WIZ001-002-006>008-014>016-023>028-272100-
NORTHWEST WISCONSIN

CITY           SKY/WX    TMP DP  RH WIND       PRES   REMARKS
SUPERIOR ARPT  FAIR      85  57  38 CALM      29.76R HX  84
ASHLAND        FAIR      86  63  45 E3        29.82F HX  87
HAYWARD        FAIR      83  59  44 S7        29.85F HX  83
SIREN          FAIR      80  58  47 NE6       29.82R HX  80
CUMBERLAND     FAIR      79  50  36 SE12G17   29.80F
RICE LAKE      FAIR      85  53  32 E14       29.84F HX  83
CHETEK         FAIR      85  59  40 N3G21     29.86F HX  85
LADYSMITH      FAIR      88  54  31 NW10      29.92R HX  85
EAU CLAIRE     FAIR      92  55  28 VRB7G20   29.87R HX  90
MENOMONIE      FAIR      86  57  36 NW7       29.87F HX  85
NEW RICHMOND   FAIR      85  55  34 CALM      29.84F HX  84
OSCEOLA        FAIR      84  56  38 S9        29.86R HX  83
$$

WIZ003>005-009-010-017-018-272100-
NORTH CENTRAL WISCONSIN

CITY           SKY/WX    TMP DP  RH WIND       PRES   REMARKS
MANITOWISH WTR FAIR      84  55  37 NW9G16    29.91S HX  83
ARBOR VITAE    FAIR      86  53  31 W7        29.91S HX  84
WOODRUFF       FAIR      86  53  31 W7        29.91S HX  84
RHINELANDER    FAIR      93  51  23 W15G22    29.91S HX  90
EAGLE RIVER    FAIR      87  46  24 W12G20    29.90S HX  84
LAND O LAKES   FAIR      86  48  26 W6        29.92S HX  83
PHILLIPS       FAIR      87  56  34 W7G16     29.92R HX  85
TOMAHAWK       FAIR      88  48  25 NW10G23   29.92R HX  85
MEDFORD        FAIR      89  52  28 NW13G21   29.91R HX  87
MERRILL        FAIR      92  52  26 W15G22    29.90S HX  89
$$

WIZ029-030-035-036-043>047-272100-
CENTRAL WISCONSIN

CITY           SKY/WX    TMP DP  RH WIND       PRES   REMARKS
WAUSAU         FAIR      92  49  22 NW8       29.88R HX  89
MOSINEE        PTSUNNY   90  52  27 NW10G20   29.91R HX  87
MARSHFIELD     FAIR      92  55  28 NW13      29.89S HX  90
STEVENS POINT  FAIR      91  51  26 NW8G18    29.89S HX  88
WAUPACA        FAIR      97  47  18 NW10G16   29.86S HX  93
WAUTOMA        NOT AVBL
WISC RAPIDS    FAIR      94  52  24 NW8       29.90R HX  91
CAMP DOUGLAS   FAIR      94  54  25 NW8G17    29.88R HX  92
$$

WIZ011>013-019>022-031-037>040-048>050-272100-
NORTHEAST WISCONSIN

CITY           SKY/WX    TMP DP  RH WIND       PRES   REMARKS
ANTIGO         FAIR      88  49  26 NW17G30   29.91R HX  85
SHAWANO        FAIR      94  51  22 W7        29.85S HX  91
OCONTO         FAIR      85  59  41 E6        29.84F HX  85
STURGEON BAY   FAIR      82  61  48 E9        29.87S HX  83
GREEN BAY      FAIR      95  56  26 N9        29.84S HX  93
MANITOWOC      NOT AVBL
APPLETON       PTSUNNY   91  45  19 NW14      29.85S HX  88
CLINTONVILLE   FAIR      95  46  18 NW13G20   29.85S HX  91
OSHKOSH        FAIR      94  62  34 VRB6      29.85S HX  94
$$

WIZ032>034-041-042-053>061-272100-
SOUTHWEST WISCONSIN

CITY           SKY/WX    TMP DP  RH WIND       PRES   REMARKS
LA CROSSE      FAIR      97  55  24 VRB6      29.84F HX  95
SPARTA         FAIR      95  49  21 CALM      29.87F HX  91
VIROQUA        FAIR      92  53  27 N8        29.90S HX  89
BOSCOBEL       FAIR      96  65  35 VRB6      29.85S HX  98
PRAIRIE DU CHI FAIR      93  63  36 NE6       29.84F HX  94
PLATTEVILLE    FAIR      91  67  44 W7        29.87F HX  95
$$

WIZ056-057-062-063-064-067-068-272100-
SOUTH CENTRAL WISCONSIN

CITY           SKY/WX    TMP DP  RH WIND       PRES   REMARKS
REEDSBURG      FAIR      94  62  34 N8        29.87S HX  94
BARABOO/DELLS  FAIR      96  51  22 W8        29.87S HX  93
LONE ROCK      FAIR      95  62  33 N9        29.85S HX  96
MINERAL POINT  FAIR      95  59  30 CALM      29.88F HX  94
MADISON        PTSUNNY   93  66  40 SW5       29.85S HX  96
MIDDLETON      FAIR      96  61  31 W6        29.87S HX  96
WATERTOWN      FAIR      93  64  37 SW8       29.84F HX  94
MONROE         FAIR      95  55  26 N6        29.86F HX  93
JANESVILLE     MOSUNNY   95  55  26 SW6       29.86F HX  93
$$

WIZ051-052-058>065-066-070>072-272100-
SOUTHEAST WISCONSIN

CITY           SKY/WX    TMP DP  RH WIND       PRES   REMARKS
MILWAUKEE      PTSUNNY   89  67  47 SE13      29.84F HX  92
WAUKESHA       SUNNY     88  61  40 SW3       29.87F HX  88
MILWAUKEE/TIMM SUNNY     93  52  24 W9        29.86F HX  90
RACINE         FAIR      87  63  44 S14       29.88F HX  88
BURLINGTON     FAIR      94  56  28 SW7       29.86F HX  92
KENOSHA        PTSUNNY   92  67  43 SE8       29.86F HX  95
FOND DU LAC    FAIR      91  61  36 NE13      29.85S HX  91
SHEBOYGAN      FAIR      89  64  43 NE8       29.85S HX  90
WEST BEND      PTSUNNY   82  64  54 CALM      29.86S HX  84
JUNEAU         FAIR      92  62  37 SW8       29.87S HX  93
$$

LSZ147-162-272100-
LAKE SUPERIOR

STATION/POSITION TIME  TEMP    WIND        PRES    WAVE
                       AIR SEA DIR/SP/G            HT/PER
                 (UTC) (F)     (DEG/KT/KT) (MB)    (FT/S)
W MID LAKE BUOY  1950   39 37  140/  4/  4 1011.4F   0
DEVILS ISLAND    2000   55      90/  8/  9 1009.6F
SAXON HARBOR     2000   71     350/  2/  7 1009.8
$$

LMZ867-665-643>646-272100-
LAKE MICHIGAN

STATION/POSITION TIME  TEMP    WIND        PRES    WAVE
                       AIR SEA DIR/SP/G            HT/PER
                 (UTC) (F)     (DEG/KT/KT) (MB)    (FT/S)
N MID LAKE BUOY  1950   42 38  180/  6/  8 1011.6R   1
NORTHPORT PIER   1940   67     140/  5/  6 1011.2S
KEWAUNEE LAKESHO 1942   62     170/  4/  4 1011.1S
SHEBOYGAN LAKESH 2000   69     130/  9/ 10 1010.8R
PORT WASHINGTON  1930   67     160/  4/  8 1011.9S
ATWATER BUOY     1907   62 56  190/  8/ 12 1011.1    1
MILWAUKEE LAKESH 1950   68     140/ 16/ 17   N/A
S MID LAKE BUOY  1950   58 46  150/  8/  8 1012.1F   0
KENOSHA   LAKESH 2000   72                 1010.8
$$

TC  - TEMPERATURE IN CELSIUS
VSB - VISIBILITY IN STATUTE MILES
WCI - WIND CHILL INDEX
HX  - HEAT INDEX





USA.gov is the U.S. government's official web portal to all federal, state and local government web resources and services.